This is the latest recevied weather packets stored in our database for station/object KA4YMY. If no packets are shown the sender has not sent any weather packets the latest 10 day(s).
| Time | Temp. | Humidity | Pressure | Rain* | Wind** | Luminosity | Snow |
|---|---|---|---|---|---|---|---|
| 1777871117 | 12.22° C | 66% | 1016.3 hPa | 0 mm | - | - | - |
| 1777870517 | 12.22° C | 66% | 1016.5 hPa | 0 mm | - | - | - |
| 1777869917 | 12.22° C | 67% | 1016.4 hPa | 0 mm | - | - | - |
| 1777869317 | 12.22° C | 67% | 1016.6 hPa | 0 mm | - | - | - |
| 1777868717 | 12.22° C | 66% | 1016.6 hPa | 0 mm | - | - | - |
| 1777868117 | 12.22° C | 66% | 1016.8 hPa | 0 mm | - | - | - |
| 1777867517 | 12.78° C | 65% | 1016.9 hPa | 0 mm | - | - | - |
| 1777866916 | 12.78° C | 64% | 1016.9 hPa | 0 mm | - | - | - |
| 1777866316 | 13.33° C | 63% | 1016.8 hPa | 0 mm | - | - | - |
| 1777865716 | 13.33° C | 63% | 1017 hPa | 0 mm | - | - | - |
| 1777865116 | 13.89° C | 62% | 1017 hPa | 0 mm | - | - | - |
| 1777864516 | 13.89° C | 61% | 1017 hPa | 0 mm | - | - | - |
| 1777863916 | 14.44° C | 60% | 1017 hPa | 0 mm | - | - | - |
| 1777863316 | 14.44° C | 58% | 1017 hPa | 0 mm | - | - | - |
| 1777862716 | 15° C | 57% | 1016.9 hPa | 0 mm | - | - | - |
| 1777862116 | 15° C | 57% | 1016.8 hPa | 0 mm | - | - | - |
| 1777861516 | 14.44° C | 58% | 1016.5 hPa | 0 mm | - | - | - |
| 1777860916 | 14.44° C | 57% | 1016.4 hPa | 0 mm | - | - | - |
| 1777860316 | 15° C | 56% | 1016.4 hPa | 0 mm | - | - | - |
| 1777859716 | 15° C | 55% | 1016.3 hPa | 0 mm | - | - | - |
| 1777859116 | 15.56° C | 55% | 1016.1 hPa | 0 mm | - | - | - |
| 1777858516 | 15.56° C | 54% | 1015.9 hPa | 0 mm | - | - | - |
| 1777857916 | 15.56° C | 52% | 1015.9 hPa | 0 mm | - | - | - |
| 1777857316 | 15.56° C | 52% | 1015.9 hPa | 0 mm | - | - | - |
| 1777856716 | 16.11° C | 50% | 1015.7 hPa | 0 mm | - | - | - |
* Rain latest hour (hover to see other rain measurements)
** Current wind speed in m/s (hover to see current wind gust speed)